{"data":{"norad_id":67966,"intl_designator":"2026-038F","name":"STARLINK-36820","alt_names":[],"object_type":"PAYLOAD","status":"ACTIVE","operator":null,"country":"US","launch_date":"2026-02-25","launch_site_code":"AFWTR","launch_vehicle":null,"mission":null,"orbit_class":"UNKNOWN","rcs_meters":null,"size_class":null,"mass_kg":null,"dimensions":null,"purposes":["comms"],"wikipedia_slug":null,"has_3d_model":false,"image_url":null,"decayed_at":null,"tle_current":{"epoch":"2026-05-25T00:18:42.310080Z","epoch_age_seconds":67791,"freshness":"FRESH","line1":"1 67966U 26038F   26145.01298970  .00016118  00000+0  50045-3 0  9990","line2":"2 67966  97.2843 155.0089 0001757  93.8859 266.2585 15.33447625 14930","mean_motion":15.33447625,"eccentricity":0.0001757,"inclination_deg":97.2843,"raan_deg":155.0089,"arg_perigee_deg":93.8859,"mean_anomaly_deg":266.2585,"bstar":0.00050045,"rev_number":1493,"period_min":93.906043905477,"perigee_km":464.3329311017,"apogee_km":466.73779757053,"semimajor_km":6843.6723643361,"source":"CELESTRAK","updated_at":"2026-05-25T13:38:21.773782Z"}}}